[[{"header":{"parameterUnit":"m.s-1","parameterCategory":1,"la1":30.2991,"la2":30.254,"lo1":-89.0895,"lo2":-89.0444,"dy":0.0017,"dx":0.0017,"nx":28,"ny":28,"refTime":"2025-07-28T03:00:00:Z","depth":0,"parameterNumber":2,"parameterNumberName":"U-component_of_WINDS"},"data":[0,0,0,0,0,0,0,0,0,0,0,0,0,0,0,0,0,0,0,0,0,0,0,0,0,0,0,0,0,0,0,0,0,0,0,0,0,0,0,0,0,0,0,0,0,0,0,0,0,0,0,0,0,0,0,0,0,0,3.0561,3.0563,0,3.0692,3.0694,3.0695,3.0656,3.0653,3.065,3.0647,3.0785,3.0791,3.0797,0,0,0,0,0,0,0,0,0,0,0,0,0,3.0278,3.0284,3.0561,3.0563,3.0564,3.0692,3.0694,3.0696,3.0656,3.0653,3.0649,3.0646,3.0783,3.079,3.0798,0,0,0,0,0,0,0,0,0,0,0,0,0,3.0405,3.0285,3.0561,3.056,3.0561,3.0692,3.0694,3.0696,3.0657,3.0653,3.0648,3.0645,3.078,3.079,3.0799,3.0939,0,0,3.0827,3.0831,0,0,0,0,0,0,0,0,3.0397,3.0415,3.0558,3.056,3.0562,3.0653,3.0645,3.0778,3.0658,3.0621,3.0647,3.0643,3.0745,3.0757,3.0791,3.0946,3.0951,3.0828,3.0834,3.0838,3.084,0,0,0,0,0,0,0,3.0389,3.0409,3.0613,3.056,3.0563,3.0554,3.0567,3.067,3.0704,3.0623,3.0621,3.0637,3.0745,3.0782,3.0793,3.0954,3.0828,3.0836,3.0842,3.0846,3.123,3.1234,0,0,0,0,0,0,3.0378,3.0402,3.0609,3.0617,3.0468,3.0562,3.0577,3.0628,3.0703,3.071,3.064,3.0634,3.0768,3.0783,3.0798,3.0967,3.0838,3.0847,3.0852,3.1226,3.1231,3.1236,0,0,0,0,0,0,3.0373,3.0397,3.0604,3.0509,3.0534,3.0571,3.0629,3.0633,3.067,3.0716,3.0722,3.0671,3.0765,3.0785,3.0904,3.0971,3.0851,3.0859,3.122,3.1227,3.1234,3.1306,0,0,0,0,0,0,3.0365,3.0395,3.0449,3.051,3.054,3.0707,3.0633,3.0638,3.0685,3.0679,3.0746,3.0754,3.0763,3.089,3.0913,3.0982,3.0867,3.1214,3.1223,3.1231,3.1298,3.1315,3.1329,0,0,0,0,0,3.0355,3.0465,3.0452,3.0477,3.0607,3.0711,3.0728,3.0736,3.0691,3.0745,3.0775,3.0752,3.096,3.0903,3.0928,3.1001,3.121,3.1221,3.1231,3.1291,3.1312,3.1329,0,0,0,0,0,0,3.0411,3.0473,3.0459,3.0592,3.0646,3.0704,3.0772,3.0757,3.0826,3.0817,3.0825,3.0841,3.0963,3.0994,3.0929,3.1141,3.1079,3.1095,3.1116,3.1136,3.1151,3.1141,3.0874,0,0,0,0,0,3.0439,3.0517,3.0567,3.068,3.0708,3.0736,3.0781,3.0782,3.0839,3.0863,3.0901,3.0958,3.1036,3.1088,3.1162,3.1302,3.1317,3.1365,3.138,3.1393,3.1407,3.1483,3.1505,3.127,3.127,3.127,0,0,3.0498,3.0541,3.059,3.0692,3.0735,3.0816,3.0755,3.0844,3.0905,3.0876,3.0991,3.1021,3.1085,3.1215,3.1274,3.1245,3.1475,3.1406,3.1416,3.1423,3.1496,3.1518,3.1538,3.1277,3.1276,3.1275,0,0,3.0646,3.0686,3.0784,3.0828,3.0892,3.091,3.0933,3.0993,3.1012,3.1126,3.1106,3.1179,3.1314,3.136,3.1402,3.1567,3.1548,3.1591,3.1672,3.1747,3.1765,3.1782,3.184,3.1861,3.1605,3.1605,3.1605,0,3.0711,3.0832,3.0837,3.0928,3.0973,3.095,3.1049,3.1092,3.1178,3.121,3.1175,3.1343,3.1385,3.1525,3.1565,3.16,3.1627,3.1583,3.1762,3.1778,3.1794,3.185,3.1872,3.161,3.1609,3.1608,3.1608,0,3.0909,3.0993,3.1065,3.1147,3.1201,3.1296,3.1316,3.137,3.1366,3.1388,3.1505,3.1554,3.1637,3.1671,3.1669,3.1811,3.1791,3.1759,3.1697,3.1821,3.1874,3.1895,3.1616,3.1615,3.1613,3.1612,0,0,3.1097,3.118,3.1206,3.1243,3.1312,3.1378,3.1471,3.1552,3.1598,3.1658,3.1737,3.1852,3.1822,3.1869,3.1872,3.1938,3.2065,3.1898,3.1899,3.1927,3.2225,3.2248,3.2273,3.2053,3.2057,3.206,3.2219,0,3.1251,3.1415,3.1422,3.1571,3.1649,3.1628,3.171,3.1761,3.1784,3.1854,3.1879,3.196,3.1915,3.1943,3.2006,3.2036,3.2125,3.2025,3.2127,3.2131,3.2111,3.23,3.2326,3.2473,3.224,3.2243,3.2246,0,3.1453,3.1518,3.1675,3.1731,3.1765,3.1838,3.1912,3.1979,3.2037,3.2049,3.2101,3.2095,3.2191,3.2126,3.2259,3.2191,3.2233,3.2254,3.226,3.227,3.2196,3.2315,3.2521,3.2543,3.2279,3.2276,3.2274,0,3.1574,3.1701,3.1811,3.1843,3.1912,3.1964,3.1996,3.2049,3.2098,3.2163,3.2194,3.2271,3.2312,3.2372,3.2386,3.2337,3.252,3.2455,3.2533,3.2532,3.2572,3.257,3.2787,3.26,3.2599,3.2599,3.2599,0,3.1745,3.1842,3.1866,3.1934,3.2042,3.2049,3.2156,3.2184,3.2232,3.2305,3.2292,3.2361,3.2376,3.2448,3.246,3.2569,3.2588,3.2601,3.2603,3.2602,3.26,3.263,3.262,3.2605,3.2604,3.2602,3.2601,0,3.19,3.1919,3.2038,3.2093,3.2109,3.2187,3.2234,3.23,3.232,3.2413,3.2435,3.2468,3.2552,3.2572,3.2674,3.2681,3.281,3.2802,3.279,3.2789,3.2865,3.2858,3.3109,3.3143,3.2934,3.2936,3.2937,0,3.2008,3.2081,3.2144,3.2192,3.2225,3.2302,3.235,3.2361,3.2412,3.2483,3.254,3.2622,3.2689,3.2825,3.2858,3.2936,3.293,3.3012,3.2941,3.2938,3.2931,3.2926,3.2933,3.3026,3.3028,3.303,3.3032,0,3.2197,3.2203,3.2273,3.2346,3.2404,3.2463,3.2519,3.2559,3.2576,3.2635,3.272,3.2772,3.2874,3.2957,3.3034,3.3067,3.3053,3.3054,3.3076,3.3075,3.3065,3.3071,3.2827,3.3048,3.3046,3.3045,3.3044,3.3044,3.2332,3.2396,3.245,3.2528,3.2571,3.2623,3.2687,3.2715,3.2786,3.2869,3.2871,3.2964,3.302,3.3122,3.316,3.3233,3.3208,3.324,3.3248,3.3256,3.3262,3.3053,3.3248,3.3247,3.3247,3.3246,3.3246,0,3.252,3.2554,3.2625,3.2703,3.2765,3.2744,3.2805,3.2858,3.294,3.2993,3.3058,3.3156,3.3236,3.3275,3.3354,3.3405,3.3401,3.3426,3.3422,3.343,3.3281,3.3254,3.3428,3.3428,3.3428,3.3428,3.3428,3.3428,3.2626,3.2733,3.2746,3.2874,3.2907,3.2997,3.3034,3.3082,3.3124,3.3234,3.3299,3.3323,3.3371,3.3453,3.3525,3.3535,3.3565,3.3593,3.3599,3.3459,3.3441,3.3423,3.3397,3.3599,3.36,3.3742,3.3744,3.3745]},{"header":{"parameterUnit":"m.s-1","parameterCategory":1,"la1":30.2991,"la2":30.254,"lo1":-89.0895,"lo2":-89.0444,"dy":0.0017,"dx":0.0017,"nx":28,"ny":28,"refTime":"2025-07-28T03:00:00:Z","depth":0,"parameterNumber":3,"parameterNumberName":"V-component_of_WINDS"},"data":[0,0,0,0,0,0,0,0,0,0,0,0,0,0,0,0,0,0,0,0,0,0,0,0,0,0,0,0,0,0,0,0,0,0,0,0,0,0,0,0,0,0,0,0,0,0,0,0,0,0,0,0,0,0,0,0,0,0,-0.2735,-0.2736,0,-0.2751,-0.2752,-0.2752,-0.2773,-0.2773,-0.2774,-0.2774,-0.2788,-0.2789,-0.2789,0,0,0,0,0,0,0,0,0,0,0,0,0,-0.2722,-0.2723,-0.2735,-0.2736,-0.2736,-0.2751,-0.2752,-0.2752,-0.2773,-0.2773,-0.2774,-0.2774,-0.2788,-0.2789,-0.2789,0,0,0,0,0,0,0,0,0,0,0,0,0,-0.2732,-0.2723,-0.2735,-0.2748,-0.275,-0.2751,-0.2752,-0.2752,-0.2773,-0.2773,-0.2774,-0.2774,-0.2788,-0.2789,-0.2789,-0.2779,0,0,-0.2789,-0.2789,0,0,0,0,0,0,0,0,-0.2732,-0.2733,-0.2746,-0.2747,-0.2749,-0.2761,-0.2752,-0.2761,-0.2773,-0.2764,-0.2774,-0.2775,-0.2779,-0.278,-0.2781,-0.2779,-0.278,-0.2789,-0.2789,-0.2789,-0.2789,0,0,0,0,0,0,0,-0.2731,-0.2732,-0.2742,-0.2746,-0.2748,-0.2753,-0.2755,-0.2754,-0.2768,-0.2765,-0.2766,-0.2768,-0.278,-0.2781,-0.2782,-0.278,-0.2789,-0.2789,-0.2789,-0.2789,-0.2772,-0.2772,0,0,0,0,0,0,-0.2728,-0.2731,-0.2741,-0.2742,-0.2741,-0.2753,-0.2755,-0.2756,-0.2768,-0.277,-0.2767,-0.2769,-0.2781,-0.2782,-0.2782,-0.2772,-0.2789,-0.2789,-0.2789,-0.2773,-0.2772,-0.2771,0,0,0,0,0,0,-0.2728,-0.2729,-0.2741,-0.2737,-0.2739,-0.2752,-0.2754,-0.2756,-0.2758,-0.277,-0.2773,-0.2767,-0.2781,-0.2782,-0.278,-0.2773,-0.2789,-0.2789,-0.2773,-0.2772,-0.2772,-0.2751,0,0,0,0,0,0,-0.2728,-0.2729,-0.2725,-0.2737,-0.2739,-0.2738,-0.2753,-0.2756,-0.2758,-0.276,-0.277,-0.2772,-0.2782,-0.278,-0.278,-0.2773,-0.2789,-0.2774,-0.2773,-0.2772,-0.2752,-0.275,-0.2747,0,0,0,0,0,-0.2727,-0.2718,-0.2725,-0.2726,-0.2735,-0.2737,-0.2738,-0.275,-0.2758,-0.2754,-0.2762,-0.2772,-0.2774,-0.2779,-0.278,-0.2773,-0.2774,-0.2773,-0.2772,-0.2753,-0.275,-0.2747,0,0,0,0,0,0,-0.2704,-0.272,-0.2727,-0.2722,-0.2728,-0.2741,-0.2736,-0.2746,-0.2749,-0.2751,-0.2765,-0.2767,-0.2763,-0.2768,-0.2773,-0.2765,-0.2776,-0.2774,-0.2761,-0.2758,-0.2756,-0.2754,-0.2789,0,0,0,0,0,-0.2698,-0.2699,-0.2713,-0.2707,-0.271,-0.2723,-0.2724,-0.2733,-0.2739,-0.2742,-0.275,-0.2755,-0.2757,-0.2758,-0.2761,-0.2754,-0.2756,-0.2749,-0.2747,-0.2745,-0.2743,-0.2741,-0.2738,-0.2768,-0.2768,-0.2768,0,0,-0.2686,-0.2695,-0.2695,-0.2702,-0.2708,-0.2709,-0.2724,-0.2724,-0.2725,-0.2741,-0.274,-0.2746,-0.2753,-0.2749,-0.2747,-0.2753,-0.2736,-0.2743,-0.2742,-0.2741,-0.274,-0.2737,-0.2734,-0.2767,-0.2767,-0.2767,0,0,-0.2665,-0.2672,-0.2668,-0.2674,-0.2683,-0.2692,-0.2691,-0.2703,-0.2707,-0.2706,-0.2719,-0.272,-0.2723,-0.2728,-0.2731,-0.2714,-0.2723,-0.2714,-0.2701,-0.2698,-0.2696,-0.2694,-0.2688,-0.2686,-0.2713,-0.2713,-0.2713,0,-0.2648,-0.265,-0.2664,-0.2664,-0.2667,-0.2684,-0.268,-0.2685,-0.2694,-0.2696,-0.2702,-0.2708,-0.2714,-0.2711,-0.2707,-0.2709,-0.2708,-0.2713,-0.2695,-0.2693,-0.2692,-0.2686,-0.2684,-0.2712,-0.2712,-0.2712,-0.2712,0,-0.263,-0.2631,-0.2627,-0.2637,-0.2639,-0.2637,-0.2651,-0.2652,-0.2661,-0.2669,-0.2669,-0.2677,-0.2682,-0.2682,-0.269,-0.2681,-0.2684,-0.2693,-0.2704,-0.2688,-0.2683,-0.2681,-0.271,-0.2711,-0.2711,-0.2711,0,0,-0.2592,-0.2612,-0.261,-0.2615,-0.2627,-0.2628,-0.2627,-0.2633,-0.2634,-0.264,-0.2639,-0.2643,-0.2651,-0.2655,-0.2664,-0.2662,-0.2648,-0.2671,-0.2671,-0.2666,-0.2639,-0.2632,-0.2629,-0.2655,-0.2655,-0.2654,-0.2638,0,-0.2573,-0.2573,-0.2586,-0.2582,-0.2583,-0.26,-0.26,-0.2607,-0.2615,-0.2618,-0.2627,-0.2629,-0.264,-0.2642,-0.2641,-0.265,-0.2643,-0.2651,-0.2654,-0.2654,-0.2651,-0.2627,-0.2619,-0.2604,-0.2637,-0.2636,-0.2636,0,-0.255,-0.2556,-0.2552,-0.2566,-0.2567,-0.2566,-0.2573,-0.2576,-0.2585,-0.2591,-0.2596,-0.2607,-0.2607,-0.2618,-0.2619,-0.2625,-0.2627,-0.2632,-0.2631,-0.2632,-0.2644,-0.2626,-0.2599,-0.2596,-0.2633,-0.2633,-0.2633,0,-0.2523,-0.253,-0.2529,-0.2533,-0.2549,-0.2548,-0.2555,-0.2565,-0.2568,-0.2574,-0.2577,-0.2582,-0.2586,-0.259,-0.2602,-0.261,-0.2602,-0.2614,-0.2607,-0.2607,-0.2604,-0.2603,-0.2576,-0.2606,-0.2606,-0.2606,-0.2606,0,-0.2499,-0.2496,-0.2518,-0.2517,-0.2514,-0.2531,-0.2527,-0.2536,-0.2545,-0.2546,-0.2561,-0.2562,-0.2579,-0.2581,-0.2591,-0.2591,-0.2592,-0.2597,-0.2599,-0.2595,-0.2595,-0.2596,-0.2598,-0.2605,-0.2605,-0.2605,-0.2606,0,-0.2468,-0.2482,-0.2483,-0.2499,-0.2503,-0.25,-0.2514,-0.2514,-0.2524,-0.2525,-0.2527,-0.2542,-0.2546,-0.256,-0.2567,-0.2574,-0.257,-0.2575,-0.2567,-0.2569,-0.2561,-0.2561,-0.2533,-0.2531,-0.2562,-0.2562,-0.2561,0,-0.2452,-0.245,-0.2467,-0.2469,-0.2475,-0.2479,-0.2483,-0.2499,-0.2502,-0.2514,-0.2512,-0.2518,-0.2524,-0.253,-0.2541,-0.2547,-0.2553,-0.2543,-0.2553,-0.255,-0.2553,-0.2552,-0.2552,-0.254,-0.2539,-0.2539,-0.2539,0,-0.2421,-0.2429,-0.2434,-0.2443,-0.2447,-0.2454,-0.2462,-0.2463,-0.2481,-0.2484,-0.2489,-0.2493,-0.2502,-0.2507,-0.2516,-0.2522,-0.2533,-0.2535,-0.2534,-0.2529,-0.2525,-0.2528,-0.256,-0.2536,-0.2536,-0.2536,-0.2536,-0.2536,-0.2397,-0.2397,-0.2409,-0.2415,-0.2423,-0.243,-0.2431,-0.2442,-0.2447,-0.2456,-0.2465,-0.247,-0.248,-0.2493,-0.2499,-0.2502,-0.2508,-0.2506,-0.2506,-0.2505,-0.2503,-0.2525,-0.2504,-0.2504,-0.2504,-0.2504,-0.2504,0,-0.2368,-0.2377,-0.2382,-0.2393,-0.2398,-0.241,-0.2419,-0.2422,-0.2426,-0.2435,-0.2441,-0.2448,-0.2454,-0.2467,-0.2474,-0.2474,-0.248,-0.2476,-0.2475,-0.2477,-0.2497,-0.2498,-0.2471,-0.2471,-0.2471,-0.2471,-0.2471,-0.2471,-0.2353,-0.2353,-0.2363,-0.2368,-0.2377,-0.2382,-0.2387,-0.2394,-0.2402,-0.2408,-0.2414,-0.2423,-0.2434,-0.2442,-0.2449,-0.2452,-0.2454,-0.2449,-0.2454,-0.2472,-0.2475,-0.2478,-0.2479,-0.2449,-0.2449,-0.2433,-0.2433,-0.2433]}]]